GIA324 WIII-WARR

Flight info

Callsign GIA324
Flight time 1h 2m
Altitude 37000
Route CA T3 BA
Aircraft B38M/M-SDE1FGHILORVWXY/HB1

Departure

Time 2026-05-06 05:52
Airport Soekarno-Hatta International Airport (WIII)

Arrival

Time 2026-05-06 06:54
Airport Juanda International Airport (WARR)
Time Latitude Longitude Altitude Speed Heading
2026-05-06 05:25 -6.11593 106.66902 33 ft 0 kts 159°
2026-05-06 05:38 -6.11591 106.66901 33 ft 2 kts 159°
2026-05-06 05:38 -6.11567 106.66893 33 ft 4 kts 161°
2026-05-06 05:38 -6.11541 106.66885 33 ft 4 kts 166°
2026-05-06 05:39 -6.11515 106.66879 33 ft 4 kts 174°
2026-05-06 05:39 -6.11489 106.66880 33 ft 4 kts 200°
2026-05-06 05:39 -6.11475 106.66890 33 ft 0 kts 249°
2026-05-06 05:42 -6.11476 106.66887 33 ft 2 kts 249°
2026-05-06 05:43 -6.11491 106.66850 50 ft 10 kts 248°
2026-05-06 05:43 -6.11531 106.66750 34 ft 20 kts 248°
2026-05-06 05:43 -6.11577 106.66628 34 ft 8 kts 246°
2026-05-06 05:43 -6.11608 106.66554 34 ft 17 kts 248°
2026-05-06 05:44 -6.11645 106.66436 35 ft 20 kts 277°
2026-05-06 05:44 -6.11523 106.66361 34 ft 22 kts 338°
2026-05-06 05:44 -6.11393 106.66309 34 ft 14 kts 338°
2026-05-06 05:44 -6.11367 106.66211 34 ft 18 kts 249°
2026-05-06 05:45 -6.11417 106.66087 35 ft 21 kts 248°
2026-05-06 05:45 -6.11474 106.65945 35 ft 23 kts 248°
2026-05-06 05:45 -6.11537 106.65786 35 ft 26 kts 248°
2026-05-06 05:45 -6.11605 106.65613 35 ft 28 kts 248°
2026-05-06 05:46 -6.11679 106.65431 36 ft 29 kts 248°
2026-05-06 05:46 -6.11755 106.65240 37 ft 30 kts 248°
2026-05-06 05:46 -6.11836 106.65038 37 ft 32 kts 249°
2026-05-06 05:46 -6.11916 106.64834 38 ft 32 kts 248°
2026-05-06 05:47 -6.11991 106.64645 37 ft 28 kts 248°
2026-05-06 05:47 -6.12067 106.64455 39 ft 29 kts 248°
2026-05-06 05:47 -6.12133 106.64290 38 ft 17 kts 248°
2026-05-06 05:47 -6.12180 106.64172 38 ft 20 kts 249°
2026-05-06 05:48 -6.12235 106.64035 39 ft 21 kts 248°
2026-05-06 05:48 -6.12257 106.63926 41 ft 15 kts 290°
2026-05-06 05:48 -6.12159 106.63892 39 ft 18 kts 26°
2026-05-06 05:48 -6.12078 106.63950 40 ft 10 kts 57°
2026-05-06 05:49 -6.12072 106.63964 40 ft 0 kts 68°
2026-05-06 05:51 -6.12054 106.64008 39 ft 20 kts 68°
2026-05-06 05:51 -6.11906 106.64382 38 ft 95 kts 68°
2026-05-06 05:51 -6.11574 106.65215 43 ft 158 kts 69°
2026-05-06 05:51 -6.11162 106.66329 560 ft 178 kts 70°
2026-05-06 05:52 -6.10745 106.67475 1509 ft 176 kts 70°
2026-05-06 05:52 -6.10209 106.68607 2121 ft 192 kts 58°
2026-05-06 05:52 -6.09258 106.69620 2710 ft 208 kts 44°
2026-05-06 05:52 -6.08170 106.70711 3209 ft 234 kts 54°
2026-05-06 05:53 -6.07574 106.72264 3830 ft 245 kts 88°
2026-05-06 05:53 -6.07858 106.73917 4887 ft 240 kts 112°
2026-05-06 05:53 -6.08460 106.75490 5798 ft 244 kts 109°
2026-05-06 05:53 -6.09022 106.77124 6639 ft 249 kts 109°
2026-05-06 05:54 -6.09586 106.78776 7469 ft 252 kts 109°
2026-05-06 05:54 -6.10160 106.80457 8282 ft 257 kts 109°
2026-05-06 05:54 -6.10751 106.82198 9013 ft 265 kts 108°
2026-05-06 05:54 -6.11356 106.83981 9739 ft 276 kts 108°
2026-05-06 05:55 -6.11991 106.85865 10207 ft 293 kts 108°
2026-05-06 05:55 -6.12659 106.87851 10767 ft 306 kts 108°
2026-05-06 05:55 -6.13350 106.89902 11510 ft 311 kts 109°
2026-05-06 05:55 -6.14052 106.91961 12423 ft 313 kts 109°
2026-05-06 05:56 -6.14764 106.94050 13254 ft 318 kts 109°
2026-05-06 05:56 -6.15488 106.96171 14063 ft 323 kts 109°
2026-05-06 05:56 -6.16220 106.98316 14831 ft 327 kts 109°
2026-05-06 05:56 -6.16965 107.00495 15606 ft 332 kts 109°
2026-05-06 05:57 -6.17718 107.02704 16352 ft 336 kts 108°
2026-05-06 05:57 -6.18482 107.04942 17096 ft 341 kts 108°
2026-05-06 05:57 -6.19249 107.07191 17808 ft 346 kts 108°
2026-05-06 05:57 -6.20034 107.09491 18462 ft 350 kts 108°
2026-05-06 05:58 -6.20828 107.11818 19078 ft 353 kts 108°
2026-05-06 05:58 -6.21628 107.14163 19705 ft 356 kts 108°
2026-05-06 05:58 -6.22435 107.16528 20301 ft 360 kts 108°
2026-05-06 05:58 -6.23249 107.18915 20898 ft 363 kts 108°
2026-05-06 05:59 -6.24070 107.21324 21482 ft 366 kts 108°
2026-05-06 05:59 -6.24899 107.23753 22059 ft 369 kts 108°
2026-05-06 05:59 -6.25734 107.26201 22618 ft 372 kts 108°
2026-05-06 05:59 -6.26578 107.28678 22812 ft 375 kts 108°
2026-05-06 06:00 -6.27422 107.31151 22815 ft 374 kts 108°
2026-05-06 06:00 -6.28264 107.33623 22818 ft 374 kts 108°
2026-05-06 06:00 -6.29106 107.36091 22821 ft 373 kts 108°
2026-05-06 06:00 -6.29947 107.38573 23064 ft 377 kts 107°
2026-05-06 06:01 -6.30558 107.41129 23649 ft 376 kts 101°
2026-05-06 06:01 -6.31106 107.43714 24071 ft 380 kts 102°
2026-05-06 06:01 -6.31679 107.46321 24513 ft 384 kts 102°
2026-05-06 06:01 -6.32268 107.48945 24966 ft 386 kts 102°
2026-05-06 06:02 -6.32867 107.51587 25417 ft 389 kts 103°
2026-05-06 06:02 -6.33476 107.54253 25862 ft 392 kts 103°
2026-05-06 06:02 -6.34088 107.56934 26286 ft 395 kts 103°
2026-05-06 06:02 -6.34705 107.59633 26726 ft 398 kts 103°
2026-05-06 06:03 -6.35326 107.62353 27179 ft 401 kts 103°
2026-05-06 06:03 -6.35953 107.65096 27605 ft 404 kts 103°
2026-05-06 06:03 -6.36584 107.67857 28018 ft 407 kts 102°
2026-05-06 06:03 -6.37214 107.70620 28440 ft 410 kts 102°
2026-05-06 06:04 -6.37854 107.73419 28843 ft 413 kts 102°
2026-05-06 06:04 -6.38501 107.76257 29233 ft 416 kts 102°
2026-05-06 06:04 -6.39151 107.79102 29632 ft 419 kts 102°
2026-05-06 06:04 -6.39803 107.81964 29995 ft 422 kts 102°
2026-05-06 06:05 -6.40461 107.84850 30311 ft 424 kts 102°
2026-05-06 06:05 -6.41122 107.87749 30645 ft 427 kts 103°
2026-05-06 06:05 -6.41786 107.90665 30963 ft 429 kts 103°
2026-05-06 06:05 -6.42453 107.93593 31291 ft 432 kts 103°
2026-05-06 06:06 -6.43124 107.96536 31616 ft 434 kts 103°
2026-05-06 06:06 -6.43799 107.99504 31937 ft 436 kts 103°
2026-05-06 06:06 -6.44477 108.02480 32243 ft 439 kts 103°
2026-05-06 06:06 -6.45159 108.05478 32552 ft 441 kts 103°
2026-05-06 06:07 -6.45840 108.08470 32862 ft 443 kts 103°
2026-05-06 06:07 -6.46531 108.11509 33162 ft 445 kts 103°
2026-05-06 06:07 -6.47223 108.14554 33460 ft 448 kts 103°
2026-05-06 06:07 -6.47917 108.17606 33753 ft 450 kts 103°
2026-05-06 06:08 -6.48616 108.20683 34016 ft 452 kts 103°
2026-05-06 06:08 -6.49319 108.23778 34249 ft 455 kts 103°
2026-05-06 06:08 -6.50025 108.26888 34495 ft 457 kts 103°
2026-05-06 06:08 -6.50733 108.30005 34807 ft 457 kts 103°
2026-05-06 06:09 -6.51435 108.33097 35142 ft 456 kts 103°
2026-05-06 06:09 -6.52140 108.36203 35488 ft 455 kts 103°
2026-05-06 06:09 -6.52843 108.39304 35815 ft 455 kts 103°
2026-05-06 06:09 -6.53551 108.42426 36142 ft 455 kts 103°
2026-05-06 06:10 -6.54254 108.45526 36457 ft 454 kts 103°
2026-05-06 06:10 -6.54956 108.48624 36763 ft 454 kts 103°
2026-05-06 06:10 -6.56355 108.54803 36825 ft 452 kts 103°
2026-05-06 06:11 -6.57752 108.60971 36831 ft 451 kts 103°
2026-05-06 06:11 -6.59134 108.67082 36827 ft 451 kts 103°
2026-05-06 06:12 -6.60525 108.73233 36827 ft 451 kts 103°
2026-05-06 06:12 -6.61915 108.79385 36826 ft 451 kts 103°
2026-05-06 06:13 -6.63304 108.85534 36825 ft 451 kts 103°
2026-05-06 06:13 -6.64692 108.91685 36824 ft 451 kts 103°
2026-05-06 06:14 -6.66080 108.97837 36825 ft 451 kts 103°
2026-05-06 06:14 -6.67467 109.03989 36823 ft 451 kts 103°
2026-05-06 06:15 -6.68853 109.10139 36821 ft 451 kts 103°
2026-05-06 06:15 -6.70238 109.16292 36820 ft 451 kts 103°
2026-05-06 06:16 -6.71622 109.22443 36817 ft 451 kts 103°
2026-05-06 06:16 -6.73002 109.28582 36822 ft 451 kts 103°
2026-05-06 06:17 -6.74387 109.34740 36820 ft 451 kts 103°
2026-05-06 06:17 -6.75777 109.40930 36821 ft 451 kts 103°
2026-05-06 06:18 -6.77158 109.47081 36826 ft 452 kts 103°
2026-05-06 06:18 -6.78532 109.53208 36821 ft 452 kts 103°
2026-05-06 06:19 -6.79921 109.59401 36824 ft 452 kts 103°
2026-05-06 06:19 -6.81298 109.65547 36824 ft 452 kts 103°
2026-05-06 06:20 -6.82678 109.71711 36824 ft 451 kts 103°
2026-05-06 06:20 -6.84057 109.77874 36826 ft 451 kts 103°
2026-05-06 06:21 -6.85434 109.84030 36823 ft 451 kts 103°
2026-05-06 06:21 -6.86580 109.89153 36826 ft 451 kts 103°
2026-05-06 06:22 -6.87957 109.95321 36827 ft 451 kts 103°
2026-05-06 06:22 -6.89329 110.01465 36828 ft 451 kts 103°
2026-05-06 06:23 -6.90703 110.07626 36822 ft 451 kts 103°
2026-05-06 06:23 -6.92075 110.13779 36815 ft 451 kts 103°
2026-05-06 06:24 -6.93443 110.19916 36813 ft 450 kts 103°
2026-05-06 06:24 -6.94814 110.26071 36803 ft 451 kts 103°
2026-05-06 06:25 -6.96183 110.32226 36800 ft 451 kts 103°
2026-05-06 06:26 -6.97517 110.41543 36806 ft 450 kts 91°
2026-05-06 06:26 -6.97648 110.47847 36805 ft 450 kts 91°
2026-05-06 06:27 -6.97764 110.54155 36803 ft 450 kts 91°
2026-05-06 06:27 -6.97876 110.60399 36681 ft 441 kts 91°
2026-05-06 06:27 -6.97930 110.63458 36514 ft 435 kts 91°
2026-05-06 06:28 -6.97984 110.66484 36113 ft 430 kts 91°
2026-05-06 06:28 -6.98037 110.69490 35591 ft 429 kts 91°
2026-05-06 06:28 -6.98091 110.72487 35071 ft 428 kts 91°
2026-05-06 06:28 -6.98143 110.75471 34592 ft 426 kts 91°
2026-05-06 06:29 -6.98195 110.78447 34113 ft 424 kts 91°
2026-05-06 06:29 -6.98247 110.81411 33607 ft 422 kts 91°
2026-05-06 06:29 -6.98299 110.84359 33033 ft 422 kts 91°
2026-05-06 06:29 -6.98350 110.87305 32551 ft 419 kts 91°
2026-05-06 06:30 -6.98400 110.90223 32109 ft 415 kts 91°
2026-05-06 06:30 -6.98450 110.93117 31642 ft 413 kts 91°
2026-05-06 06:30 -6.98500 110.96015 31170 ft 411 kts 91°
2026-05-06 06:30 -6.98549 110.98883 30701 ft 409 kts 91°
2026-05-06 06:31 -6.98598 111.01737 30228 ft 407 kts 91°
2026-05-06 06:31 -6.98646 111.04582 29734 ft 406 kts 91°
2026-05-06 06:31 -6.98694 111.07395 29194 ft 405 kts 91°
2026-05-06 06:31 -6.98741 111.10220 28714 ft 402 kts 91°
2026-05-06 06:32 -6.98788 111.13018 28259 ft 398 kts 91°
2026-05-06 06:32 -6.98835 111.15797 27806 ft 395 kts 91°
2026-05-06 06:32 -6.98881 111.18554 27355 ft 393 kts 91°
2026-05-06 06:32 -6.98927 111.21292 26903 ft 390 kts 91°
2026-05-06 06:33 -6.98972 111.24014 26455 ft 388 kts 91°
2026-05-06 06:33 -6.99017 111.26720 26009 ft 386 kts 91°
2026-05-06 06:33 -6.99061 111.29416 25564 ft 384 kts 91°
2026-05-06 06:33 -6.99105 111.32098 25120 ft 382 kts 91°
2026-05-06 06:34 -6.99149 111.34768 24679 ft 381 kts 91°
2026-05-06 06:34 -6.99192 111.37427 24239 ft 380 kts 91°
2026-05-06 06:34 -6.99235 111.40077 23795 ft 375 kts 91°
2026-05-06 06:34 -6.99463 111.42650 23301 ft 366 kts 104°
2026-05-06 06:35 -7.00191 111.45065 22832 ft 354 kts 106°
2026-05-06 06:35 -7.00842 111.47413 22433 ft 343 kts 105°
2026-05-06 06:35 -7.01487 111.49716 22025 ft 341 kts 106°
2026-05-06 06:35 -7.02132 111.52000 21620 ft 339 kts 106°
2026-05-06 06:36 -7.02775 111.54275 21223 ft 337 kts 106°
2026-05-06 06:36 -7.03415 111.56535 20829 ft 335 kts 106°
2026-05-06 06:36 -7.04051 111.58779 20437 ft 333 kts 106°
2026-05-06 06:36 -7.04681 111.61005 20046 ft 331 kts 106°
2026-05-06 06:37 -7.05311 111.63229 19663 ft 330 kts 106°
2026-05-06 06:37 -7.05938 111.65444 19277 ft 329 kts 106°
2026-05-06 06:37 -7.06562 111.67646 18887 ft 328 kts 106°
2026-05-06 06:37 -7.07189 111.69865 18493 ft 327 kts 106°
2026-05-06 06:38 -7.07812 111.72065 18105 ft 326 kts 106°
2026-05-06 06:38 -7.08434 111.74260 17664 ft 326 kts 106°
2026-05-06 06:38 -7.09051 111.76444 17255 ft 323 kts 107°
2026-05-06 06:38 -7.09665 111.78614 16857 ft 321 kts 107°
2026-05-06 06:39 -7.10268 111.80747 16470 ft 318 kts 107°
2026-05-06 06:39 -7.10873 111.82885 16096 ft 317 kts 107°
2026-05-06 06:39 -7.11473 111.85011 15710 ft 315 kts 107°
2026-05-06 06:39 -7.12070 111.87121 15335 ft 313 kts 107°
2026-05-06 06:40 -7.12668 111.89237 14948 ft 312 kts 107°
2026-05-06 06:40 -7.13259 111.91331 14568 ft 310 kts 107°
2026-05-06 06:40 -7.13847 111.93414 14186 ft 309 kts 107°
2026-05-06 06:40 -7.14427 111.95467 13816 ft 299 kts 107°
2026-05-06 06:41 -7.14987 111.97448 13455 ft 289 kts 107°
2026-05-06 06:41 -7.15522 111.99343 13248 ft 275 kts 108°
2026-05-06 06:41 -7.16222 112.01133 12887 ft 277 kts 115°
2026-05-06 06:41 -7.17008 112.02892 12506 ft 280 kts 115°
2026-05-06 06:42 -7.17800 112.04705 12160 ft 279 kts 114°
2026-05-06 06:42 -7.18570 112.06488 11802 ft 277 kts 114°
2026-05-06 06:42 -7.19332 112.08266 11461 ft 276 kts 114°
2026-05-06 06:42 -7.20087 112.10039 11155 ft 273 kts 114°
2026-05-06 06:43 -7.20823 112.11767 10859 ft 270 kts 113°
2026-05-06 06:43 -7.21566 112.13517 10546 ft 267 kts 113°
2026-05-06 06:43 -7.22285 112.15212 10234 ft 265 kts 113°
2026-05-06 06:43 -7.23013 112.16924 9909 ft 264 kts 113°
2026-05-06 06:44 -7.23736 112.18627 9559 ft 264 kts 113°
2026-05-06 06:44 -7.24457 112.20328 9195 ft 263 kts 112°
2026-05-06 06:44 -7.25172 112.22016 8849 ft 262 kts 113°
2026-05-06 06:44 -7.25879 112.23679 8529 ft 261 kts 113°
2026-05-06 06:45 -7.26599 112.25376 8171 ft 260 kts 113°
2026-05-06 06:45 -7.27308 112.27050 7836 ft 259 kts 113°
2026-05-06 06:45 -7.28012 112.28710 7515 ft 257 kts 113°
2026-05-06 06:45 -7.28701 112.30337 7196 ft 256 kts 113°
2026-05-06 06:46 -7.29410 112.32006 6889 ft 257 kts 112°
2026-05-06 06:46 -7.29927 112.33707 6508 ft 259 kts 101°
2026-05-06 06:46 -7.30267 112.35487 6180 ft 259 kts 101°
2026-05-06 06:46 -7.30618 112.37271 5835 ft 258 kts 101°
2026-05-06 06:47 -7.30969 112.39044 5505 ft 258 kts 101°
2026-05-06 06:47 -7.31324 112.40817 5175 ft 258 kts 102°
2026-05-06 06:47 -7.31680 112.42589 4853 ft 258 kts 102°
2026-05-06 06:47 -7.32031 112.44335 4538 ft 250 kts 102°
2026-05-06 06:48 -7.32373 112.46030 4228 ft 246 kts 101°
2026-05-06 06:48 -7.32710 112.47700 4053 ft 240 kts 102°
2026-05-06 06:48 -7.33040 112.49317 3946 ft 233 kts 101°
2026-05-06 06:48 -7.33366 112.50901 3764 ft 229 kts 102°
2026-05-06 06:49 -7.33689 112.52445 3598 ft 221 kts 101°
2026-05-06 06:49 -7.33955 112.53902 3554 ft 208 kts 99°
2026-05-06 06:49 -7.34189 112.55282 3517 ft 192 kts 99°
2026-05-06 06:49 -7.34401 112.56565 3547 ft 184 kts 99°
2026-05-06 06:50 -7.34608 112.57837 3525 ft 184 kts 99°
2026-05-06 06:50 -7.34817 112.59119 3377 ft 187 kts 99°
2026-05-06 06:50 -7.35030 112.60439 3151 ft 195 kts 99°
2026-05-06 06:50 -7.35253 112.61817 2887 ft 204 kts 99°
2026-05-06 06:51 -7.35484 112.63217 2623 ft 200 kts 99°
2026-05-06 06:51 -7.35702 112.64595 2384 ft 202 kts 99°
2026-05-06 06:51 -7.35933 112.65982 2178 ft 198 kts 99°
2026-05-06 06:51 -7.36148 112.67316 1969 ft 187 kts 99°
2026-05-06 06:52 -7.36353 112.68598 1725 ft 183 kts 98°
2026-05-06 06:52 -7.36554 112.69842 1493 ft 176 kts 99°
2026-05-06 06:52 -7.36748 112.71047 1248 ft 171 kts 98°
2026-05-06 06:52 -7.36932 112.72181 1057 ft 159 kts 98°
2026-05-06 06:53 -7.37108 112.73279 839 ft 155 kts 97°
2026-05-06 06:53 -7.37276 112.74310 663 ft 143 kts 99°
2026-05-06 06:53 -7.37432 112.75291 423 ft 141 kts 98°
2026-05-06 06:53 -7.37585 112.76258 263 ft 140 kts 98°
2026-05-06 06:54 -7.37742 112.77216 70 ft 137 kts 99°
2026-05-06 06:54 -7.37883 112.78088 22 ft 103 kts 101°
2026-05-06 06:54 -7.37967 112.78598 24 ft 66 kts 99°
2026-05-06 06:54 -7.38038 112.79028 25 ft 43 kts 99°
2026-05-06 06:55 -7.38021 112.79290 23 ft 36 kts 73°
2026-05-06 06:55 -7.37932 112.79410 20 ft 15 kts
2026-05-06 06:55 -7.37859 112.79422 21 ft 9 kts
2026-05-06 06:55 -7.37793 112.79433 21 ft 10 kts
2026-05-06 06:56 -7.37721 112.79445 20 ft 12 kts 10°
2026-05-06 06:56 -7.37684 112.79506 19 ft 9 kts 72°
2026-05-06 06:56 -7.37627 112.79528 19 ft 6 kts
2026-05-06 06:56 -7.37610 112.79531 19 ft 3 kts
2026-05-06 06:57 -7.37607 112.79531 19 ft 0 kts
2026-05-06 06:57 -7.37604 112.79531 20 ft 0 kts